Flag for Spain Weather past 2 weeks in Madrid, Spain

Now
84 °F

Sunny.


Feels Like: 81 °F
Forecast: 66 / 96 °F
Wind: 8 mph from West

Location: Madrid / Cuatro Vientos

Current Time: Jul 23, 2014 at 11:15:35 PM

Latest Report: Jul 23, 2014 at 10:00 PM


Visibility: 10 mi

Pressure: 29.89 "Hg

Humidity: 20%

Dew point: 39 °F

Location of MadridLocation

Historic Weather in Madrid — Graph

°F

Madrid temperature yesterday

Maximum temperature yesterday: 95 °F (at 4:30 PM)
Minimum temperature yesterday: 66 °F (at 7:00 AM)
Average temperature yesterday: 84 °F

Past Weeks' High & Low Weather Summary

 TemperatureHumidityPressure
High100 °F (Jul 16, 5:00 PM)77% (Jul 20, 7:00 AM)30.24 "Hg (Jul 20, 7:00 AM)
Low57 °F (Jul 10, 7:00 AM)9% (Jul 15, 7:30 PM)29.86 "Hg (Jul 23, 5:30 PM)
Average82 °F28%30.06 "Hg
* Reported Jul 8 10:00 PM — Jul 23 10:00 PM, Madrid, Weather by CustomWeather, © 2014

Note: Actual official high and low records may vary slightly from our data, if they occured in-between our weather recording intervals... More about our weather records

Advertising

Madrid weather history for previous 24 hours

 ConditionsComfort  
Time TempWeatherWind HumidityBarometerVisibility
10:00 PM
Jul 23
84 °FSunny.8 mph20%29.89 "Hg10 mi
9:30 PM90 °FSunny.9 mph16%29.86 "Hg10 mi
9:00 PM91 °FSunny.9 mph15%29.86 "Hg10 mi
8:30 PM93 °FSunny.12 mph14%29.86 "Hg10 mi
8:00 PM95 °FPassing clouds.10 mph12%29.86 "HgN/A
7:30 PM95 °FPassing clouds.13 mph12%29.86 "HgN/A
7:00 PM95 °FPassing clouds.10 mph12%29.86 "HgN/A
6:30 PM97 °FPassing clouds.10 mph11%29.86 "HgN/A
6:00 PM97 °FPassing clouds.10 mph11%29.86 "HgN/A
5:30 PM97 °FPassing clouds.10 mph12%29.86 "HgN/A
5:00 PM97 °FPassing clouds.8 mph10%29.89 "HgN/A
4:30 PM97 °FPassing clouds.10 mph11%29.89 "HgN/A
4:00 PM97 °FPassing clouds.13 mph11%29.89 "HgN/A
3:30 PM97 °FPassing clouds.9 mph12%29.89 "HgN/A
3:00 PM97 °FSunny.7 mph12%29.92 "Hg10 mi
12:00 PM88 °FPassing clouds.3 mph19%29.95 "HgN/A
11:30 AM84 °FSunny.2 mph23%29.98 "Hg10 mi
11:00 AM82 °FSunny.2 mph25%29.98 "Hg10 mi
7:30 AM68 °FPassing clouds.3 mph35%29.98 "HgN/A
7:00 AM68 °FClear.1 mph35%29.98 "Hg10 mi
Weather by CustomWeather, © 2014

See weather overviewHow to use our weather pages